Weather History for Madison, MN

Change the Weather History Date:

Wednesday, February 6, 2013

  Actual Average (KAQP) Record (KAQP)
Temperature  
Mean Temperature 20 °F -  
Max Temperature 33 °F 23 °F 44 °F (2002)
Min Temperature 6 °F 6 °F -14 °F (2014)
Degree Days  
Heating Degree Days 46    
Moisture  
Dew Point 17 °F    
Average Humidity 86    
Maximum Humidity 93    
Minimum Humidity 79    
Precipitation  
Precipitation 0.00 in - - ()
Sea Level Pressure  
Sea Level Pressure 29.92 in    
Wind  
Wind Speed 8 mph (ESE)    
Max Wind Speed 20 mph    
Max Gust Speed -    
Visibility 8 miles    
Events      
Averages and records for this station are not official NWS values.
T = Trace of Precipitation, MM = Missing Value Source: NWS Daily Summary

Daily Weather History Graph

Daily Weather History Graph

Search for Another Location

Airport:

Trip Planner

Search our weather history database for the weather conditions in past years. The results will help you decide how hot, cold, wet, or windy it might be!

Date:

Astronomy

Feb. 06, 2013 Rise Set
Actual Time 7:37 AM CST 5:40 PM CST
Civil Twilight 7:07 AM CST 6:11 PM CST
Nautical Twilight 6:32 AM CST 6:45 PM CST
Astronomical Twilight 5:58 AM CST 7:20 PM CST
Moon 4:27 AM CST (2/6) 1:54 PM CST (2/6)
Length of Visible Light 11h 04m
Length of Day
10h 02m
Waning Crescent, 17% of the Moon is Illuminated
Feb 6
Waning Crescent
Feb 10
New
Feb 17
First Quarter
Feb 25
Full
Mar 4
Last Quarter

Hourly Weather History & Observations

Time (CST) Temp. Windchill Dew Point Humidity Pressure Visibility Wind Dir Wind Speed Gust Speed Precip Events Conditions
12:13 AM 8.6 °F 0.1 °F 3.2 °F 79% 30.06 in 10.0 mi SSE 4.6 mph - N/A   Clear
12:34 AM 6.8 °F -0.1 °F 3.2 °F 85% 30.06 in 10.0 mi SSE 3.5 mph - N/A   Clear
1:13 AM 6.8 °F -3.5 °F 3.2 °F 85% 30.05 in 10.0 mi SSE 5.8 mph - N/A   Clear
1:34 AM 6.8 °F -3.5 °F 3.2 °F 85% 30.04 in 10.0 mi SSE 5.8 mph - N/A   Clear
1:54 AM 6.8 °F -2.0 °F 3.2 °F 85% 30.03 in 10.0 mi SE 4.6 mph - N/A   Clear
2:13 AM 10.4 °F -0.4 °F 6.8 °F 85% 30.02 in 10.0 mi SE 6.9 mph - N/A   Mostly Cloudy
2:34 AM 10.4 °F 2.2 °F 6.8 °F 85% 30.03 in 10.0 mi SE 4.6 mph - N/A   Overcast
2:54 AM 10.4 °F 0.8 °F 6.8 °F 85% 30.02 in 10.0 mi SE 5.8 mph - N/A   Overcast
3:13 AM 12.2 °F 2.9 °F 6.8 °F 79% 30.02 in 10.0 mi SE 5.8 mph - N/A   Overcast
3:34 AM 12.2 °F 6.1 °F 6.8 °F 79% 30.02 in 10.0 mi South 3.5 mph - N/A   Mostly Cloudy
3:54 AM 12.2 °F -0.2 °F 6.8 °F 79% 30.00 in 10.0 mi SSE 9.2 mph - N/A   Clear
4:13 AM 12.2 °F -0.2 °F 8.6 °F 85% 30.01 in 10.0 mi South 9.2 mph - N/A   Clear
4:34 AM 14.0 °F 1.2 °F 8.6 °F 79% 30.00 in 10.0 mi South 10.4 mph - N/A   Scattered Clouds
4:54 AM 14.0 °F 2.0 °F 8.6 °F 79% 29.98 in 10.0 mi SE 9.2 mph - N/A   Mostly Cloudy
5:13 AM 14.0 °F 2.0 °F 10.4 °F 86% 29.97 in 10.0 mi SE 9.2 mph - N/A   Mostly Cloudy
5:34 AM 15.8 °F 6.1 °F 10.4 °F 79% 29.97 in 10.0 mi SE 6.9 mph - N/A   Scattered Clouds
6:13 AM 15.8 °F 4.2 °F 12.2 °F 86% 29.96 in 10.0 mi SE 9.2 mph - N/A   Mostly Cloudy
6:34 AM 15.8 °F 2.7 °F 12.2 °F 86% 29.95 in 10.0 mi SE 11.5 mph - N/A   Overcast
6:54 AM 17.6 °F 5.0 °F 12.2 °F 79% 29.95 in 10.0 mi ESE 11.5 mph - N/A   Mostly Cloudy
7:13 AM 17.6 °F 3.7 °F 12.2 °F 79% 29.92 in 10.0 mi SE 13.8 mph - N/A   Mostly Cloudy
7:34 AM 17.6 °F 4.3 °F 14.0 °F 86% 29.92 in 10.0 mi SE 12.7 mph - N/A   Scattered Clouds
7:53 AM 19.4 °F 7.2 °F 15.8 °F 86% 29.92 in 10.0 mi SE 11.5 mph - N/A   Scattered Clouds
8:14 AM 19.4 °F 7.2 °F 15.8 °F 86% 29.91 in 10.0 mi SE 11.5 mph - N/A   Scattered Clouds
8:34 AM 21.2 °F 7.8 °F 17.6 °F 86% 29.90 in 10.0 mi SE 15.0 mph - N/A   Scattered Clouds
8:53 AM 21.2 °F 7.3 °F 17.6 °F 86% 29.90 in 10.0 mi SE 16.1 mph - N/A   Mostly Cloudy
9:14 AM 23.0 °F 8.3 °F 19.4 °F 86% 29.87 in 10.0 mi SE 19.6 mph - N/A   Mostly Cloudy
9:34 AM 23.0 °F 10.1 °F 19.4 °F 86% 29.88 in 10.0 mi SE 15.0 mph - N/A   Scattered Clouds
9:53 AM 24.8 °F 12.9 °F 19.4 °F 80% 29.88 in 10.0 mi SE 13.8 mph - N/A   Clear
10:14 AM 24.8 °F 12.4 °F 21.2 °F 86% 29.87 in 10.0 mi SE 15.0 mph - N/A   Clear
10:34 AM 24.8 °F 12.4 °F 21.2 °F 86% 29.86 in 10.0 mi SE 15.0 mph - N/A   Clear
10:53 AM 26.6 °F 13.8 °F 21.2 °F 80% 29.85 in 10.0 mi SSE 17.3 mph - N/A   Clear
11:14 AM 26.6 °F 14.3 °F 21.2 °F 80% 29.84 in 7.0 mi SE 16.1 mph - N/A   Clear
11:34 AM 26.6 °F 14.3 °F 23.0 °F 86% 29.85 in 7.0 mi SE 16.1 mph - N/A   Clear
11:53 AM 28.4 °F 19.7 °F 23.0 °F 80% 29.86 in 10.0 mi ESE 9.2 mph - N/A   Clear
12:14 PM 28.4 °F 19.1 °F 24.8 °F 86% 29.85 in 10.0 mi ESE 10.4 mph - N/A   Clear
12:34 PM 28.4 °F 19.7 °F 24.8 °F 86% 29.84 in 10.0 mi ESE 9.2 mph - N/A   Clear
12:53 PM 28.4 °F 19.1 °F 24.8 °F 86% 29.83 in 7.0 mi SE 10.4 mph - N/A   Clear
1:14 PM 30.2 °F 20.8 °F 26.6 °F 86% 29.82 in 10.0 mi SE 11.5 mph - N/A   Clear
1:34 PM 30.2 °F 20.2 °F 26.6 °F 86% 29.81 in 7.0 mi SE 12.7 mph - N/A   Clear
1:53 PM 30.2 °F 20.2 °F 26.6 °F 86% 29.80 in 7.0 mi SE 12.7 mph - N/A   Clear
2:14 PM 32.0 °F 24.8 °F 28.4 °F 87% 29.81 in 7.0 mi SE 8.1 mph - N/A   Clear
2:34 PM 32.0 °F 25.6 °F 28.4 °F 87% 29.81 in 7.0 mi SE 6.9 mph - N/A   Clear
2:53 PM 33.8 °F 27.7 °F 28.4 °F 81% 29.81 in 7.0 mi ESE 6.9 mph - N/A   Clear
3:14 PM 32.0 °F 26.4 °F 28.4 °F 87% 29.82 in 7.0 mi ESE 5.8 mph - N/A   Clear
3:34 PM 32.0 °F 27.5 °F 28.4 °F 87% 29.82 in 7.0 mi East 4.6 mph - N/A   Clear
3:53 PM 30.2 °F 23.4 °F 28.4 °F 93% 29.81 in 7.0 mi ESE 6.9 mph - N/A   Clear
4:14 PM 30.2 °F 23.4 °F 26.6 °F 86% 29.80 in 7.0 mi SE 6.9 mph - N/A   Clear
4:53 PM 28.4 °F 23.3 °F 26.6 °F 93% 29.83 in 5.0 mi East 4.6 mph - N/A   Clear
5:14 PM 28.4 °F 22.2 °F 24.8 °F 86% 29.84 in 7.0 mi East 5.8 mph - N/A   Clear
5:34 PM 26.6 °F 18.2 °F 24.8 °F 93% 29.85 in 5.0 mi East 8.1 mph - N/A   Clear
5:53 PM 26.6 °F 19.1 °F 24.8 °F 93% 29.86 in 7.0 mi East 6.9 mph - N/A   Clear
6:14 PM 24.8 °F 17.9 °F 23.0 °F 93% 29.87 in 7.0 mi ENE 5.8 mph - N/A   Clear
6:34 PM 24.8 °F 17.9 °F 21.2 °F 86% 29.88 in 7.0 mi ENE 5.8 mph - N/A   Clear
6:53 PM 24.8 °F 16.9 °F 21.2 °F 86% 29.89 in 7.0 mi ENE 6.9 mph - N/A   Clear
7:14 PM 23.0 °F 14.7 °F 21.2 °F 93% 29.89 in 7.0 mi East 6.9 mph - N/A   Clear
7:34 PM 21.2 °F 13.6 °F 19.4 °F 93% 29.89 in 7.0 mi East 5.8 mph - N/A   Clear
7:53 PM 21.2 °F 13.6 °F 19.4 °F 93% 29.90 in 7.0 mi NE 5.8 mph - N/A   Clear
8:14 PM 19.4 °F 10.4 °F 17.6 °F 93% 29.91 in 7.0 mi NE 6.9 mph - N/A   Clear
8:34 PM 19.4 °F 11.5 °F 17.6 °F 93% 29.93 in 7.0 mi North 5.8 mph - N/A   Clear
8:53 PM 19.4 °F 11.5 °F 15.8 °F 86% 29.94 in 7.0 mi North 5.8 mph - N/A   Clear
9:14 PM 19.4 °F 10.4 °F 15.8 °F 86% 29.95 in 7.0 mi North 6.9 mph - N/A   Clear
9:34 PM 21.2 °F 13.6 °F 17.6 °F 86% 29.96 in 7.0 mi North 5.8 mph - N/A   Scattered Clouds
9:53 PM 21.2 °F 12.6 °F 17.6 °F 86% 29.97 in 7.0 mi NNE 6.9 mph - N/A   Scattered Clouds
10:14 PM 21.2 °F 11.7 °F 17.6 °F 86% 29.98 in 7.0 mi North 8.1 mph - N/A   Scattered Clouds
10:34 PM 21.2 °F 11.7 °F 17.6 °F 86% 29.98 in 7.0 mi NNE 8.1 mph - N/A   Mostly Cloudy
10:53 PM 21.2 °F 11.7 °F 17.6 °F 86% 29.99 in 7.0 mi North 8.1 mph - N/A   Mostly Cloudy
11:14 PM 21.2 °F 12.6 °F 17.6 °F 86% 29.99 in 7.0 mi NNE 6.9 mph - N/A   Scattered Clouds
11:34 PM 21.2 °F 13.6 °F 17.6 °F 86% 30.00 in 7.0 mi NNE 5.8 mph - N/A   Scattered Clouds
11:53 PM 21.2 °F 14.9 °F 17.6 °F 86% 30.01 in 7.0 mi North 4.6 mph - N/A   Mostly Cloudy